Location: Владивосток
(43.1151°N, 131.8856°E)
Time: 15:30:36
(UTC+10:00)

Envisat - Visible Passes

Search period start: 18 January 2022 00:00
Search period end: 28 January 2022 00:00
Orbit: 764 x 766 km, 98.2° (Epoch: 17 January)

Date Brightness Start Highest point End Pass type
(mag) Time Alt. Az. Time Alt. Az. Time Alt. Az.
18 Jan 3.3 05:58:17 10° NNE 06:03:22 65° ESE 06:08:24 10° S visible
18 Jan 4.4 07:38:37 10° NNW 07:41:51 17° WNW 07:45:03 10° W visible
18 Jan 6.5 18:57:50 10° W 18:58:25 10° W 18:59:00 10° W visible
19 Jan 4.7 05:21:53 10° NE 05:26:20 30° E 05:30:44 10° SSE visible
19 Jan 3.5 07:00:47 10° N 07:05:21 34° WNW 07:09:53 10° SW visible
20 Jan 5.8 04:46:36 10° ENE 04:49:05 14° E 04:51:35 10° ESE visible
20 Jan 2.8 06:23:34 10° N 06:28:39 74° WNW 06:33:42 10° SSW visible
20 Jan 4.8 08:06:06 10° NW 08:06:44 10° NW 08:07:23 10° WNW visible
21 Jan 3.7 05:46:47 10° NNE 05:51:44 51° E 05:56:40 10° S visible
21 Jan 4.1 07:26:38 10° NNW 07:30:23 21° WNW 07:34:08 10° WSW visible
21 Jan 6.1 18:44:13 10° WSW 18:46:40 13° W 18:49:08 10° WNW visible
22 Jan 5.1 05:10:36 10° NE 05:14:39 24° E 05:18:41 10° SE visible
22 Jan 3.3 06:49:02 10° N 06:53:50 43° WNW 06:58:36 10° SW visible
23 Jan 6.0 04:36:38 10° E 04:37:21 10° E 04:38:03 10° E visible
23 Jan 2.9 06:11:57 10° NNE 06:17:04 88° E 06:22:09 10° SSW visible
23 Jan 4.6 07:53:05 10° NNW 07:55:20 13° WNW 07:57:34 10° W visible
24 Jan 4.2 05:35:19 10° NNE 05:40:07 40° E 05:44:52 10° SSE visible
24 Jan 3.9 07:14:45 10° N 07:18:55 26° WNW 07:23:04 10° WSW visible
25 Jan 5.4 04:59:25 10° NE 05:02:57 19° E 05:06:28 10° SE visible
25 Jan 3.0 06:37:20 10° N 06:42:17 54° WNW 06:47:14 10° SSW visible
26 Jan 3.2 06:00:23 10° NNE 06:05:28 70° ESE 06:10:32 10° S visible
26 Jan 4.4 07:40:52 10° NNW 07:43:54 16° WNW 07:46:56 10° W visible
27 Jan 4.6 05:23:55 10° NNE 05:28:27 32° E 05:32:58 10° SSE visible
27 Jan 3.6 07:02:55 10° N 07:07:25 32° WNW 07:11:53 10° SW visible
